This demonstration page uses our WeatherBlox Daily Observations layout. Learn more.

Left ArrowRight Arrow

44.8408, -93.29828

Hourly Observations for October 15, 2021

Temp ( °F °C ) Dew Point ( °F °C ) Humidity (%) Winds ( mph kmh ) Pressure ( in mb ) Visibility ( mi km ) Precip ( " mm )
12:53 am 00:53 Mostly Cloudy 47 8.3 38 3.3 71 71 SW 7 11 29.93 1014 10 16 N/A
1:53 am 01:53 Mostly Cloudy 45 7.2 38 3.3 77 77 WSW 5 7 29.93 1014 10 16 N/A
2:53 am 02:53 Cloudy 44 6.7 38 3.3 79 79 N N/A 29.92 1013 10 16 N/A
3:53 am 03:53 Cloudy 44 6.7 38 3.3 79 79 N N/A 29.91 1013 10 16 N/A
4:53 am 04:53 Cloudy 44 6.7 37 2.8 76 76 SW 5 7 29.89 1012 10 16 N/A
5:53 am 05:53 Mostly Cloudy 44 6.7 37 2.8 76 76 SW 10 17 29.91 1013 10 16 N/A
6:53 am 06:53 Mostly Cloudy 43 6.1 36 2.2 76 76 WSW 6 9 29.91 1013 10 16 N/A
7:53 am 07:53 Mostly Cloudy 42 5.6 37 2.8 82 82 WSW 6 9 29.93 1014 10 16 N/A
8:53 am 08:53 Partly Cloudy 44 6.7 38 3.3 79 79 WSW 7 11 29.95 1014 10 16 N/A
9:53 am 09:53 Partly Cloudy 46 7.8 38 3.3 73 73 WSW 7 11 29.96 1015 10 16 N/A
10:53 am 10:53 Partly Cloudy 49 9.4 38 3.3 66 66 SW 8 13 29.96 1015 10 16 N/A
11:53 am 11:53 Partly Cloudy 53 11.7 36 2.2 52 52 W 12 19 29.95 1014 10 16 N/A
12:53 pm 12:53 Mostly Cloudy 53 11.7 34 1.1 48 48 W 12 19 29.94 1014 10 16 N/A
1:53 pm 13:53 Mostly Cloudy 51 10.6 35 1.7 54 54 W 17 28 29.94 1014 10 16 N/A
2:53 pm 14:53 Mostly Cloudy 52 11.1 33 0.6 49 49 W 16 26 29.93 1014 10 16 N/A
3:53 pm 15:53 Cloudy 51 10.6 35 1.7 54 54 W 20 31 29.94 1014 10 16 N/A
4:53 pm 16:53 Cloudy 50 10 36 2.2 59 59 WNW 15 24 29.96 1015 10 16 N/A
5:53 pm 17:53 Cloudy with Light Rain 48 8.9 40 4.4 74 74 W 10 17 29.98 1015 10 16 0.01 0.25
6:53 pm 18:53 Cloudy 48 8.9 39 3.9 71 71 WNW 10 17 29.98 1015 10 16 0.00 0.00
7:53 pm 19:53 Mostly Cloudy 47 8.3 37 2.8 69 69 W 9 15 29.98 1015 10 16 N/A
8:53 pm 20:53 Mostly Cloudy 47 8.3 37 2.8 69 69 W 6 9 29.98 1015 10 16 N/A
9:53 pm 21:53 Mostly Cloudy 46 7.8 37 2.8 71 71 W 6 9 29.97 1015 10 16 N/A
10:53 pm 22:53 Mostly Cloudy 46 7.8 37 2.8 71 71 W 6 9 29.97 1015 10 16 N/A
11:53 pm 23:53 Clear 45 7.2 36 2.2 71 71 WNW 10 17 29.97 1015 10 16 N/A

Powered by AerisWeather